When you browse on this site, cookies collect data to enhance your experience and personalize the content and advertising you see.
Visit our Privacy Policy to learn more. By continuing to use the site, you agree to this use of cookies and data.
  • In Romania
  • List of Countries
  • For 7 days
  • Water Temperature
  • Satellite Maps
  • Weather Map
  • Weather Widgets
  • user-avatar
    Login

    Hourly Weather Arrifana

    Today, 19 February, Tuesday

    Time Temperature Precipitation Wind Pressure Humidity
    00:00 +7°C° 0 mm 2 mps 748 mmHg 87%
    01:00 +7°C° 0 mm 2 mps 748 mmHg 87%
    02:00 +6°C° 0 mm 2 mps 748 mmHg 88%
    03:00 +6°C° 0 mm 2 mps 748 mmHg 88%
    04:00 +6°C° 0 mm 2 mps 748 mmHg 88%
    05:00 +6°C° 0 mm 2 mps 748 mmHg 87%
    06:00 +8°C° 0 mm 1 mps 748 mmHg 84%
    07:00 +8°C° 0 mm 1 mps 748 mmHg 81%
    08:00 +9°C° 0 mm 1 mps 748 mmHg 78%
    09:00 +11°C° 0 mm 1 mps 748 mmHg 69%
    10:00 +13°C° 0 mm 1 mps 748 mmHg 61%
    11:00 +16°C° 0 mm 1 mps 748 mmHg 53%
    12:00 +15°C° 0 mm 1 mps 748 mmHg 50%
    13:00 +15°C° 0 mm 2 mps 747 mmHg 47%
    14:00 +14°C° 0 mm 3 mps 747 mmHg 44%
    15:00 +14°C° 0 mm 2 mps 747 mmHg 51%
    16:00 +12°C° 0 mm 2 mps 747 mmHg 58%
    17:00 +9°C° 0 mm 2 mps 747 mmHg 64%
    18:00 +9°C° 0 mm 1 mps 747 mmHg 69%
    19:00 +8°C° 0 mm 1 mps 748 mmHg 73%
    20:00 +7°C° 0 mm 1 mps 748 mmHg 78%
    21:00 +7°C° 0 mm 1 mps 748 mmHg 78%
    22:00 +7°C° 0 mm 1 mps 748 mmHg 79%
    23:00 +7°C° 0 mm 1 mps 748 mmHg 79%

    Tomorrow, 20 February, Wednesday

    Time Temperature Precipitation Wind Pressure Humidity
    00:00 +6°C° 0 mm 1 mps 748 mmHg 79%
    01:00 +6°C° 0 mm 1 mps 748 mmHg 78%
    02:00 +6°C° 0 mm 1 mps 748 mmHg 78%
    03:00 +6°C° 0 mm 1 mps 748 mmHg 77%
    04:00 +6°C° 0 mm 1 mps 748 mmHg 77%
    05:00 +5°C° 0 mm 2 mps 748 mmHg 76%
    06:00 +7°C° 0 mm 1 mps 748 mmHg 73%
    07:00 +8°C° 0 mm 1 mps 749 mmHg 70%
    08:00 +9°C° 0 mm 1 mps 749 mmHg 66%
    09:00 +11°C° 0 mm 1 mps 749 mmHg 59%
    10:00 +13°C° 0 mm 2 mps 749 mmHg 51%
    11:00 +15°C° 0 mm 2 mps 749 mmHg 44%
    12:00 +16°C° 0 mm 2 mps 749 mmHg 45%
    13:00 +16°C° 0 mm 2 mps 749 mmHg 47%
    14:00 +16°C° 0 mm 2 mps 749 mmHg 48%
    15:00 +15°C° 0 mm 2 mps 749 mmHg 55%
    16:00 +13°C° 0 mm 1 mps 749 mmHg 63%
    17:00 +12°C° 0 mm 1 mps 749 mmHg 70%
    18:00 +11°C° 0 mm 1 mps 749 mmHg 73%
    19:00 +11°C° 0 mm 1 mps 749 mmHg 77%
    20:00 +10°C° 0 mm 1 mps 750 mmHg 80%
    21:00 +10°C° 0 mm 1 mps 750 mmHg 82%
    22:00 +9°C° 0 mm 2 mps 750 mmHg 84%
    23:00 +9°C° 0 mm 2 mps 750 mmHg 86%

    Day after tomorrow, 21 February, Thursday

    Time Temperature Precipitation Wind Pressure Humidity
    00:00 +8°C° 0 mm 2 mps 750 mmHg 86%
    01:00 +8°C° 0 mm 2 mps 750 mmHg 85%
    02:00 +8°C° 0 mm 2 mps 750 mmHg 85%
    03:00 +8°C° 0 mm 2 mps 750 mmHg 84%
    04:00 +8°C° 0 mm 3 mps 750 mmHg 84%
    05:00 +8°C° 0 mm 3 mps 750 mmHg 83%
    06:00 +9°C° 0 mm 3 mps 750 mmHg 79%
    07:00 +10°C° 0 mm 3 mps 751 mmHg 76%
    08:00 +11°C° 0 mm 3 mps 751 mmHg 73%
    09:00 +13°C° 0 mm 3 mps 751 mmHg 64%
    10:00 +15°C° 0 mm 4 mps 751 mmHg 55%
    11:00 +19°C° 0 mm 4 mps 751 mmHg 45%
    12:00 +19°C° 0 mm 4 mps 751 mmHg 43%
    13:00 +20°C° 0 mm 4 mps 751 mmHg 41%
    14:00 +20°C° 0 mm 4 mps 751 mmHg 38%
    15:00 +19°C° 0 mm 4 mps 751 mmHg 45%
    16:00 +17°C° 0 mm 3 mps 751 mmHg 51%
    17:00 +16°C° 0 mm 3 mps 751 mmHg 58%
    18:00 +15°C° 0 mm 2 mps 752 mmHg 62%
    19:00 +14°C° 0 mm 2 mps 752 mmHg 65%
    20:00 +13°C° 0 mm 2 mps 753 mmHg 69%
    21:00 +11°C° 0 mm 3 mps 753 mmHg 70%
    22:00 +11°C° 0 mm 3 mps 753 mmHg 70%
    23:00 +11°C° 0 mm 3 mps 753 mmHg 71%

    22 February, Friday

    Time Temperature Precipitation Wind Pressure Humidity
    00:00 +11°C° 0 mm 3 mps 753 mmHg 72%
    01:00 +10°C° 0 mm 3 mps 753 mmHg 73%
    02:00 +10°C° 0 mm 2 mps 753 mmHg 74%
    03:00 +10°C° 0 mm 3 mps 753 mmHg 74%
    04:00 +9°C° 0 mm 3 mps 753 mmHg 73%
    05:00 +9°C° 0 mm 3 mps 753 mmHg 73%
    06:00 +10°C° 0 mm 3 mps 753 mmHg 68%
    07:00 +11°C° 0 mm 3 mps 753 mmHg 62%
    08:00 +12°C° 0 mm 3 mps 754 mmHg 57%
    09:00 +14°C° 0 mm 3 mps 753 mmHg 50%
    10:00 +18°C° 0 mm 4 mps 753 mmHg 43%
    11:00 +20°C° 0 mm 4 mps 753 mmHg 35%
    12:00 +21°C° 0 mm 4 mps 753 mmHg 34%
    13:00 +21°C° 0 mm 4 mps 752 mmHg 32%
    14:00 +22°C° 0 mm 4 mps 752 mmHg 30%
    15:00 +20°C° 0 mm 4 mps 752 mmHg 36%
    16:00 +19°C° 0 mm 4 mps 751 mmHg 43%
    17:00 +17°C° 0 mm 3 mps 751 mmHg 49%
    18:00 +16°C° 0 mm 3 mps 752 mmHg 53%
    19:00 +14°C° 0 mm 3 mps 752 mmHg 56%
    20:00 +12°C° 0 mm 3 mps 752 mmHg 59%
    21:00 +12°C° 0 mm 3 mps 753 mmHg 59%
    22:00 +12°C° 0 mm 3 mps 753 mmHg 60%
    23:00 +11°C° 0 mm 3 mps 753 mmHg 60%

    23 February, Saturday

    Time Temperature Precipitation Wind Pressure Humidity
    00:00 +11°C° 0 mm 3 mps 753 mmHg 60%
    01:00 +11°C° 0 mm 3 mps 752 mmHg 60%
    02:00 +11°C° 0 mm 4 mps 752 mmHg 60%
    03:00 +11°C° 0 mm 3 mps 752 mmHg 61%
    04:00 +11°C° 0 mm 3 mps 752 mmHg 62%
    05:00 +10°C° 0 mm 2 mps 752 mmHg 62%
    06:00 +11°C° 0 mm 3 mps 753 mmHg 60%
    07:00 +12°C° 0 mm 3 mps 753 mmHg 57%
    08:00 +13°C° 0 mm 4 mps 754 mmHg 54%
    09:00 +16°C° 0 mm 3 mps 754 mmHg 48%
    10:00 +19°C° 0 mm 3 mps 754 mmHg 41%
    11:00 +21°C° 0 mm 2 mps 754 mmHg 35%
    12:00 +21°C° 0 mm 2 mps 754 mmHg 35%
    13:00 +21°C° 0 mm 3 mps 754 mmHg 36%
    14:00 +21°C° 0 mm 3 mps 753 mmHg 36%
    15:00 +19°C° 0 mm 2 mps 753 mmHg 44%
    16:00 +18°C° 0 mm 1 mps 754 mmHg 51%
    17:00 +16°C° 0 mm 1 mps 754 mmHg 59%
    18:00 +15°C° 0 mm 1 mps 754 mmHg 60%
    19:00 +14°C° 0 mm 1 mps 755 mmHg 62%
    20:00 +13°C° 0 mm 1 mps 755 mmHg 63%
    21:00 +13°C° 0 mm 1 mps 755 mmHg 64%
    22:00 +12°C° 0 mm 1 mps 755 mmHg 64%
    23:00 +12°C° 0 mm 1 mps 755 mmHg 65%

    24 February, Sunday

    Time Temperature Precipitation Wind Pressure Humidity
    00:00 +12°C° 0 mm 1 mps 755 mmHg 65%
    01:00 +11°C° 0 mm 1 mps 755 mmHg 65%
    02:00 +11°C° 0 mm 1 mps 755 mmHg 65%
    03:00 +10°C° 0 mm 2 mps 755 mmHg 65%
    04:00 +10°C° 0 mm 2 mps 755 mmHg 65%
    05:00 +10°C° 0 mm 2 mps 755 mmHg 66%
    06:00 +12°C° 0 mm 2 mps 755 mmHg 63%
    07:00 +13°C° 0 mm 1 mps 756 mmHg 61%
    08:00 +14°C° 0 mm 1 mps 756 mmHg 59%
    09:00 +18°C° 0 mm 1 mps 756 mmHg 53%
    10:00 +18°C° 0 mm 0 mps 756 mmHg 46%
    11:00 +21°C° 0 mm 0 mps 756 mmHg 40%
    12:00 +21°C° 0 mm 0 mps 756 mmHg 39%
    13:00 +23°C° 0 mm 1 mps 755 mmHg 38%
    14:00 +23°C° 0 mm 1 mps 755 mmHg 37%
    15:00 +21°C° 0 mm 1 mps 755 mmHg 44%
    16:00 +19°C° 0 mm 1 mps 755 mmHg 50%
    17:00 +18°C° 0 mm 1 mps 755 mmHg 57%
    18:00 +16°C° 0 mm 1 mps 755 mmHg 59%
    19:00 +14°C° 0 mm 1 mps 755 mmHg 61%
    20:00 +13°C° 0 mm 1 mps 756 mmHg 63%
    21:00 +13°C° 0 mm 1 mps 756 mmHg 64%
    22:00 +13°C° 0 mm 1 mps 756 mmHg 64%
    23:00 +12°C° 0 mm 1 mps 756 mmHg 64%
    Show more